Find Starlink 30156

NORAD ID: 57466 Int'l Des: 2023-107 Owner: SPXS Country: US Constellation: starlink decayed
LEOCIRCULAR

Historical Track — Oct 17, 2023

Loading 3D Globe...

About Starlink 30156

Description loading...

Altitude History

Loading altitude history...

Two-Line Element Set

1 57466U 23107K 23289.66199799 .05260150 92380-5 10210-2 0 9993
2 57466 42.9870 11.5648 0011191 13.8816 136.9823 16.30550441 13943
Epoch: Oct 16, 2023 • Age: 22850 hours

Current Status

Position data unavailable
Launch Date Jul 28, 2023
Age 2.8 years
Decay Date Oct 17, 2023
Type internet

Technical Details

Classification Payload
Mass 730.00 kg
Dry Mass 700.00 kg
Total Mass 730.00 kg
Length 0.30 m
Diameter 4.10 m
Span 29.00 m
Shape Box + pan
Manufacturer SPXS
Bus Type Starlink V2M
Phase Status Unknown Transfer Status
Owner/State SPXS/US

Most Searched